WESTFORD NEEDLES *, 3267

Orbit data source: Space-Track

WESTFORD NEEDLES *, 3267 is space debris in LEO originally from a launch on Thu, 09 May 1963 UTC launched from the Air Force Western Test Range (AFWTR). Debris objects in space refer to the collection of defunct objects orbiting the Earth. Examples of debris include non-operational satellites, rocket bodies, and fragments generated from explosions, collisions, or faulty payload assembly.

Loading next visibility...
Identifier
3267, 1963-014CF
Orbit
LEO
Country
Flag of USUS
Related business
Manufacturer
RCA Victor
Mission
Spacecraft
Bus & Motor
Unknown
Mass
Unknown
Launch date (UTC)
1963-05-09 (63 years ago)
Launch vehicle
Unknown
Launch site
Air Force Western Test Range (AFWTR)
Object type
Payload
Rocket body
Debris
Shape & HBR
Unknown shape, 0.1 m
Radar Cross Section
Small (<0.1 m²)

Expand to show TLE details & history
Last TLE update: 12 hours ago

TLE from 12 hours ago
0 WESTFORD NEEDLES *
1 03267U 63014CF  26034.14501290  .00000220  00000-0  14416-3 0  9992
2 03267  88.3769  96.3056 1688529  44.8360 327.7278 11.34077835527148
Epoch: 2026-02-03T03:28Z
TLE epoch observation values (Epoch: 2026-02-03T03:28:49.114Z)
Latitude
0.00001°
Longitude
-89.22919°
Altitude
883.178 km
Speed
7.887 km/s
True Right ascension
06h 25m 13s
True Declination
0° 00' 00"
Sunlit
Object was in full shadow at epoch
Visualization orbit readout
Latitude
Unknown
Longitude
Unknown
Altitude
Unknown
Speed
Unknown
Apparent Right ascension
Unknown
Apparent Declination
Unknown
Sunlit
N/A
Visualization observer readout
Local Sidereal Time
17:29:24
Azimuth
Unknown
Elevation
Unknown
Doppler factor
Unknown
Orbital elements
Apogee altitude
3,400.038 km
Perigee altitude
574.921 km
Semi-major axis
8,365.616 km
Eccentricity
0.16885
Inclination
88.3769°
RAAN
96.3056°
Arg. of periapsis
44.836°
True anomaly
315.27709°
Mean anomaly
327.7278°
Eccentric anomaly
321.73656°
Mean motion
2.83659 °/min
Orbital period
126.91 mins
BSTAR
0.00014416

Documentation

Showing up to 5 results
|